This is the latest recevied weather packets stored in our database for station/object JF2ZGN-13. If no packets are shown the sender has not sent any weather packets the latest 10 day(s).
| Time | Temp. | Humidity | Pressure | Rain* | Wind** | Luminosity | Snow |
|---|---|---|---|---|---|---|---|
| 1777873535 | 13.89° C | 64% | 892.5 hPa | 20.07 mm | - | - | - |
| 1777872935 | 13.33° C | 65% | 892.6 hPa | 20.07 mm | - | - | - |
| 1777872334 | 13.89° C | 67% | 892.4 hPa | 20.07 mm | - | - | - |
| 1777871734 | 13.89° C | 67% | 892.6 hPa | 20.07 mm | - | - | - |
| 1777871133 | 14.44° C | 67% | 892.4 hPa | 20.07 mm | - | - | - |
| 1777870533 | 14.44° C | 63% | 892.4 hPa | 20.07 mm | - | - | - |
| 1777869932 | 14.44° C | 63% | 892.5 hPa | 20.07 mm | - | - | - |
| 1777869332 | 14.44° C | 67% | 891.8 hPa | 20.07 mm | - | - | - |
| 1777868732 | 14.44° C | 65% | 892.4 hPa | 20.07 mm | - | - | - |
| 1777868131 | 14.44° C | 68% | 892.6 hPa | 20.07 mm | - | - | - |
| 1777867530 | 14.44° C | 67% | 892.4 hPa | 20.07 mm | - | - | - |
| 1777866930 | 14.44° C | 64% | 892.2 hPa | 20.07 mm | - | - | - |
| 1777866329 | 14.44° C | 68% | 892.7 hPa | 20.07 mm | - | - | - |
| 1777865729 | 15° C | 70% | 893.1 hPa | 20.07 mm | - | - | - |
| 1777865129 | 14.44° C | 69% | 892.9 hPa | 20.07 mm | - | - | - |
| 1777864528 | 15° C | 68% | 893.1 hPa | 20.07 mm | - | - | - |
| 1777863928 | 15° C | 70% | 892.7 hPa | 20.07 mm | - | - | - |
| 1777863327 | 15° C | 67% | 892.6 hPa | 20.07 mm | - | - | - |
| 1777862727 | 14.44° C | 66% | 892.6 hPa | 20.07 mm | - | - | - |
| 1777862126 | 14.44° C | 66% | 892.9 hPa | 20.07 mm | - | - | - |
| 1777861526 | 14.44° C | 64% | 892.7 hPa | 20.07 mm | - | - | - |
| 1777860925 | 14.44° C | 67% | 892.7 hPa | 20.07 mm | - | - | - |
| 1777860325 | 14.44° C | 67% | 892.6 hPa | 20.07 mm | - | - | - |
| 1777859725 | 14.44° C | 69% | 892.6 hPa | 20.07 mm | - | - | - |
| 1777859124 | 15° C | 68% | 892.7 hPa | 20.07 mm | - | - | - |
* Rain since midnight (hover to see other rain measurements)
** Current wind speed in m/s (hover to see current wind gust speed)